Powrót do katalogu

CZ-4C DEB

AktywnySSO
NORAD 38661·DEBRIS·🇨🇳 China

Wystrzelony May 29, 2012 z Taiyuan Satellite Launch Center

Loading…

Następne Przeloty (najbliższe 24 godziny)

TLE

ŚwieżeSource: Space-Track

Epoka: Sep 13, 2026, 09:20 UTC

1 38661U 12029C   26256.38913322  .00000067  00000-0  26029-3 0  9995
2 38661 100.0511 305.9095 0124665  95.3485 266.1868 13.19912142685192

Śledź CZ-4C DEB w czasie rzeczywistym z AllMySat

Download on the App Store